GFSNGP_prec_cthk_135.txt.gz
RH
23 20 22 24 30 41 64 62 68 58 61 67 78 88 93 88 92 95 97 97 97 96 97 98 98 96 96 94 91 98 93 96 98 95 95 93 90 91 86 85 90 95 94 92
27 24 30 34 37 50 58 61 63 63 64 72 80 85 89 89 89 90 96 96 93 97 97 97 97 97 97 99 98 98 98 96 94 92 94 94 91 90 85 82 83 87 91 90
34 40 43 48 43 54 58 55 67 75 73 78 83 85 90 86 87 82 83 94 93 96 97 97 95 89 87 87 89 90 93 90 84 80 77 74 74 76 77 80 86 84 83 87
43 46 54 45 52 52 53 61 67 74 74 75 86 83 88 90 85 80 77 82 88 90 94 92 92 87 81 78 75 71 67 66 70 74 74 78 80 77 71 66 70 77 76 80
52 51 47 56 55 49 54 58 68 71 73 69 79 81 83 87 85 81 73 74 80 87 86 87 87 87 80 73 69 66 64 59 57 58 63 68 70 74 77 77 85 87 80 84
57 55 54 45 50 53 57 60 66 73 67 70 74 79 80 83 85 81 74 71 72 76 81 80 73 76 79 75 70 66 65 64 62 54 50 48 54 65 68 74 70 70 78 77
55 56 48 50 51 53 59 53 55 63 72 75 74 82 87 87 84 83 78 74 71 72 72 78 71 68 72 73 70 65 62 56 54 55 52 49 49 46 51 60 68 69 70 72
61 61 54 52 49 51 54 54 56 60 67 78 76 84 90 92 87 86 84 79 74 73 75 73 72 67 63 68 69 66 62 54 51 49 46 44 44 45 45 45 46 49 53 58
45 45 48 52 52 53 57 60 60 58 62 67 79 81 88 96 93 91 89 86 82 81 80 77 69 66 65 64 64 63 60 57 57 56 50 48 47 47 47 47 46 45 45 49
44 45 47 47 46 51 55 62 62 58 60 62 68 81 88 92 97 94 94 95 91 85 84 80 74 69 65 61 57 55 55 57 58 56 54 52 50 49 48 47 46 46 47 50
46 41 42 46 52 58 62 64 64 65 64 64 61 71 84 86 90 96 97 97 96 91 85 80 75 73 69 64 58 54 52 51 52 52 52 51 51 50 50 49 48 50 49 50
39 34 39 47 54 62 70 68 70 75 73 69 65 67 79 85 82 93 96 97 97 97 92 87 79 74 72 68 60 57 53 52 52 51 52 51 50 50 49 49 51 51 51 51
39 44 47 54 62 67 77 83 88 88 84 75 68 68 76 82 80 80 90 95 96 97 96 93 84 78 73 68 65 61 59 56 54 53 54 53 53 51 49 48 50 54 54 57
44 46 58 79 81 85 90 97 95 90 87 80 74 70 75 80 83 78 79 90 93 95 96 97 93 84 76 71 70 68 62 59 58 57 55 53 54 53 52 52 50 51 54 58
51 55 64 74 87 94 94 93 91 91 92 87 81 74 76 81 86 86 80 82 89 92 92 97 96 92 86 77 71 69 65 63 61 60 57 56 56 55 55 54 52 53 54 56
56 63 70 78 82 84 85 85 85 86 93 91 88 85 77 79 85 89 85 79 77 80 87 89 95 96 92 87 80 73 71 69 65 60 60 58 57 55 55 54 52 50 51 52
66 66 70 75 79 79 78 80 82 88 90 91 93 91 85 83 87 87 86 83 79 75 78 82 88 91 95 96 90 85 79 74 71 68 64 61 58 57 55 54 53 51 51 50
80 83 83 81 80 79 80 82 84 88 89 95 97 96 90 92 95 92 88 83 80 79 75 74 77 84 89 91 95 94 91 88 83 77 71 68 64 61 60 58 57 54 55 54
85 84 87 84 80 82 82 81 81 82 84 86 88 90 93 97 96 97 95 91 86 82 80 80 79 77 77 84 88 90 93 93 91 88 86 82 75 71 68 65 64 61 58 58
82 84 86 85 84 84 83 82 83 83 82 81 81 80 79 80 82 82 82 84 87 89 88 88 87 84 82 80 79 84 87 89 90 90 90 89 86 82 77 74 70 67 64 62
78 73 73 73 74 75 77 77 78 77 77 78 78 80 81 81 79 78 77 77 78 81 85 86 86 87 88 90 88 83 81 85 86 85 85 86 86 85 83 81 78 74 70 68
67 69 72 74 76 76 76 77 77 78 79 79 79 78 77 76 76 76 78 79 80 81 80 81 83 86 88 89 89 91 92 91 87 84 85 86 87 86 85 82 79 77 75 71
68 60 53 46 42 41 41 41 42 43 44 46 48 50 52 55 57 59 61 64 68 73 77 79 81 82 84 87 88 89 89 89 91 91 92 92 90 88 85 83 83 81 78 74
45 41 37 35 35 35 35 36 37 39 40 40 40 40 40 41 42 44 48 51 53 55 58 61 65 72 79 82 84 85 87 88 89 90 91 91 91 90 91 91 89 86 83 78
37 36 35 35 34 35 35 36 36 36 36 37 38 38 38 39 39 41 42 43 45 47 50 54 57 59 61 65 70 76 82 86 88 88 88 89 89 89 90 90 90 90 87 82
34 34 35 34 35 35 36 36 36 37 37 37 36 36 36 37 38 39 41 42 44 46 47 49 51 53 56 59 63 66 68 70 73 78 83 88 90 90 91 89 86 84 83 81
34 35 36 36 36 36 37 36 37 38 38 38 37 37 38 38 39 41 43 45 47 48 49 51 52 55 56 58 60 62 64 65 67 68 70 72 74 77 82 87 91 92 88 83

GFSNGP_prec_cthk_138.txt.gz
RH
39 32 26 21 22 25 40 43 54 39 44 48 57 63 67 67 73 74 74 80 87 96 96 96 96 92 86 75 72 70 69 70 74 75 74 79 89 89 94 90 86 81 81 81
30 27 24 18 23 32 37 44 45 46 48 57 59 60 67 68 70 73 72 72 80 89 98 98 97 98 96 98 89 82 79 75 78 86 90 94 88 87 92 93 91 88 85 84
35 35 38 45 32 37 49 43 48 53 60 59 64 58 67 71 72 71 72 68 72 81 89 93 94 92 90 93 96 94 98 99 95 84 96 90 95 95 91 93 97 95 92 93
46 51 61 47 35 39 46 46 49 52 57 58 60 63 68 72 70 75 73 68 66 73 80 87 86 92 86 84 83 86 87 92 99 96 91 94 98 96 90 92 95 92 90 91
54 47 49 47 44 45 41 44 50 51 54 54 55 59 70 70 73 76 77 72 67 66 73 79 81 79 88 84 76 70 72 71 71 82 93 98 87 82 80 82 86 89 92 86
56 49 41 45 41 41 42 50 44 45 46 50 55 59 63 69 74 77 79 75 70 64 65 70 78 78 76 83 83 75 72 68 63 61 60 67 78 84 85 87 80 74 70 72
52 46 45 41 43 43 48 58 43 46 44 46 53 62 66 68 73 80 80 77 74 67 65 62 73 77 73 73 75 76 72 69 68 65 61 59 56 58 68 73 79 89 85 80
50 51 51 43 44 46 48 45 48 49 47 47 48 57 66 70 73 78 83 82 81 76 72 67 69 75 72 72 70 73 72 67 61 57 56 59 56 56 56 53 57 69 75 70
45 46 44 44 44 43 43 46 50 50 50 51 51 51 57 67 74 82 87 87 85 82 80 76 70 74 72 71 69 70 71 68 62 56 55 54 54 53 51 50 50 50 50 54
41 45 47 46 45 44 44 48 50 52 55 55 55 54 53 60 71 81 87 92 91 91 88 84 78 74 74 68 66 64 64 64 61 58 56 54 51 54 53 51 50 47 47 47
43 45 44 42 42 45 46 51 56 55 58 59 60 58 54 58 70 80 86 88 95 95 95 91 84 78 76 72 65 63 60 57 56 56 56 55 52 51 50 51 51 51 50 51
44 39 32 41 41 45 51 56 59 61 65 65 69 68 62 62 68 80 87 84 89 96 96 96 93 85 79 72 70 67 62 57 53 54 54 52 52 52 52 51 51 51 51 51
34 35 38 42 47 54 58 62 66 72 77 80 83 81 73 67 69 78 83 82 82 89 95 96 96 94 84 79 73 68 64 62 59 55 53 54 53 51 52 51 52 54 55 56
40 40 45 51 63 69 72 78 79 85 89 87 85 84 81 75 70 75 84 82 79 81 88 94 96 96 95 86 78 75 70 67 65 63 60 58 56 55 54 54 54 55 56 56
43 46 51 53 61 67 75 82 80 82 81 80 84 86 83 81 76 75 81 84 82 77 81 86 90 95 97 95 90 82 76 73 70 67 63 61 59 58 56 55 55 54 55 56
53 54 56 59 65 71 74 76 77 77 80 83 87 87 88 88 82 78 83 86 85 81 75 76 83 88 94 97 97 94 88 79 74 72 68 64 62 60 59 57 56 54 53 52
63 64 68 74 76 77 76 77 78 78 84 93 94 97 96 96 92 87 88 86 87 85 81 77 75 78 82 88 96 97 97 91 87 81 77 72 67 64 61 59 57 56 54 53
71 75 77 82 83 81 81 81 79 81 84 87 86 89 92 95 96 95 93 93 92 91 88 83 79 76 75 76 82 89 94 97 97 93 89 82 76 72 67 63 61 59 57 56
73 78 81 85 87 89 88 84 82 82 82 85 86 86 86 83 81 80 81 84 88 90 91 90 89 87 84 80 77 78 83 88 92 95 96 94 92 86 80 76 70 66 63 60
74 75 77 76 74 74 75 77 80 81 82 82 81 79 77 76 76 77 78 77 76 76 77 80 84 87 88 89 89 87 84 81 82 85 88 91 92 91 90 87 83 78 72 68
71 66 64 66 68 67 65 61 59 62 66 69 71 72 72 71 70 70 72 74 75 74 76 78 77 79 83 86 88 88 89 90 90 86 83 84 88 86 86 84 84 84 81 77
60 63 60 52 46 41 39 38 36 36 37 37 37 38 41 44 46 48 49 51 53 54 60 65 71 77 81 83 85 87 89 89 89 90 93 93 89 86 84 84 84 82 81 79
61 49 41 38 36 35 35 34 33 33 33 33 33 33 37 37 37 38 39 40 42 44 48 49 52 56 62 69 78 83 85 87 89 90 91 91 92 92 93 92 89 86 83 81
43 37 35 35 35 36 36 36 35 35 35 35 35 34 36 36 36 36 37 36 35 37 39 42 46 50 55 58 61 65 70 76 83 86 88 88 88 89 90 91 91 90 87 83
35 34 34 35 37 39 38 36 37 37 37 38 37 37 37 37 38 38 37 38 37 39 41 41 44 47 50 53 56 59 63 65 67 71 75 79 83 86 88 87 87 89 90 87
33 35 36 38 39 39 39 39 39 39 39 39 39 39 39 38 39 40 40 39 40 40 42 44 45 48 51 53 55 57 59 61 63 65 68 70 72 75 77 80 83 84 84 82
34 33 36 39 39 39 39 39 39 39 39 40 40 40 40 41 41 42 41 43 43 45 47 48 50 51 53 56 58 60 61 62 63 64 65 66 67 68 70 72 74 76 76 74

GFSNGP_prec_cthk_141.txt.gz
RH
41 37 40 43 42 40 44 36 44 33 35 38 44 46 47 47 48 56 58 60 65 68 69 87 95 97 78 69 74 74 75 73 68 68 68 65 68 72 73 81 79 72 73 73
45 42 40 37 38 36 33 30 30 35 43 51 48 47 45 45 50 54 60 62 65 64 67 75 87 96 96 84 76 67 68 68 68 68 68 65 66 64 67 68 69 72 71 74
49 44 39 40 33 29 42 32 35 46 46 41 37 43 45 46 50 54 60 62 64 63 63 68 80 87 96 94 91 80 70 68 65 66 62 65 67 68 72 71 75 88 79 75
51 55 60 54 44 35 33 35 39 43 46 43 39 40 47 48 49 51 55 60 64 67 63 62 76 79 87 94 88 87 89 85 84 86 76 68 70 74 90 83 86 92 94 98
61 63 62 59 46 38 36 43 42 46 43 40 38 38 55 47 49 49 54 59 65 68 68 62 66 76 77 86 92 87 80 82 84 93 98 92 88 98 98 99 95 97 94 98
56 62 59 61 49 41 36 42 43 42 40 37 36 37 45 44 48 50 53 58 65 70 68 67 63 71 70 76 84 90 80 77 76 80 81 83 96 97 93 89 92 97 99 95
65 60 60 63 47 39 43 59 55 48 39 41 41 40 41 42 43 48 53 60 66 75 73 69 64 63 67 71 74 76 82 81 74 73 69 68 73 75 92 99 98 98 92 93
63 64 65 59 47 39 51 53 51 44 43 41 42 43 42 41 40 44 51 59 65 75 77 73 70 66 64 66 69 69 72 73 72 67 69 70 63 61 63 72 86 88 98 98
56 62 60 49 46 42 41 42 45 45 44 43 45 46 45 45 44 42 49 60 67 75 83 82 75 72 67 66 68 67 66 69 69 63 58 58 61 64 58 60 58 58 62 74
58 58 53 43 41 42 40 45 45 42 43 44 46 50 51 50 47 46 50 59 67 77 87 90 85 82 74 69 67 69 65 65 67 66 60 56 55 57 60 58 54 54 53 53
52 48 49 48 46 45 43 42 43 44 46 48 52 55 57 57 56 52 54 62 70 78 83 91 95 93 86 78 73 72 69 64 64 66 66 61 59 56 53 54 55 54 51 50
51 51 47 57 50 45 42 42 43 48 52 58 65 65 68 68 69 65 60 65 73 81 82 83 96 97 96 88 81 75 72 70 65 63 63 63 60 58 56 56 56 55 56 55
44 43 37 39 40 42 44 51 54 57 64 71 76 78 82 81 80 77 70 70 77 84 84 81 88 97 97 96 89 83 78 72 70 67 65 62 62 62 61 60 61 61 62 64
33 34 36 37 41 49 58 60 64 68 68 73 78 79 81 85 84 82 77 70 75 82 83 80 83 90 96 97 97 91 86 82 78 74 70 68 64 60 61 61 60 60 61 60
38 37 37 40 45 50 55 61 64 66 70 74 78 81 87 89 88 86 81 74 74 82 83 82 82 83 87 93 97 97 94 85 82 81 77 74 71 69 67 64 61 58 57 57
41 42 45 48 52 58 63 65 68 70 74 77 80 86 92 95 97 95 89 84 83 83 85 84 83 80 80 85 88 96 97 96 91 84 80 77 75 72 68 66 63 59 58 57
50 52 57 60 65 70 70 71 73 76 77 76 77 85 88 90 93 96 96 95 95 94 90 89 86 84 81 76 80 84 89 97 97 96 91 84 78 74 70 66 64 61 58 58
58 60 64 68 72 76 78 80 81 80 79 77 77 79 82 83 82 83 83 83 85 87 90 93 91 90 89 85 82 78 77 81 88 96 97 96 93 87 81 75 70 66 63 61
60 63 67 69 71 72 72 71 69 70 73 76 78 78 77 76 74 75 74 74 76 77 78 80 82 85 87 87 88 89 87 82 80 81 87 93 96 96 96 92 86 80 75 70
62 62 64 66 66 61 56 54 51 48 46 45 47 49 54 54 56 60 62 64 64 65 67 69 71 74 77 81 83 86 86 88 90 88 84 83 85 90 93 96 96 95 93 87
60 60 55 55 47 42 39 37 38 37 35 34 34 33 33 33 33 34 37 40 41 43 46 48 50 52 60 68 75 79 81 84 86 87 90 91 89 86 86 88 90 92 91 90
52 52 49 39 36 34 34 34 32 32 31 30 30 31 32 33 32 31 31 32 32 31 34 36 38 41 46 51 56 62 70 79 83 86 87 89 90 92 94 92 90 87 86 87
51 45 35 32 32 32 31 31 31 31 31 31 31 34 34 35 35 36 36 34 34 34 35 35 34 35 38 42 48 53 56 61 66 75 83 87 89 90 91 93 94 94 94 92
46 35 31 32 30 32 35 33 35 32 32 32 32 32 35 39 39 36 36 36 35 37 37 34 35 37 40 42 45 48 52 57 61 63 65 70 77 83 88 90 91 92 93 92
38 30 30 31 36 37 36 36 36 36 37 36 36 35 36 37 37 37 38 39 39 38 38 38 36 40 41 43 46 48 51 53 55 58 61 64 66 68 70 74 80 85 88 90
33 33 34 36 43 41 41 37 42 41 43 41 38 37 37 37 37 38 38 39 39 39 39 40 41 42 44 46 49 51 54 56 58 59 61 62 63 65 66 68 70 71 72 73
33 34 37 39 40 41 43 43 43 43 41 43 42 39 38 38 38 38 38 39 39 40 41 41 42 43 46 48 51 55 57 59 60 62 63 64 64 65 66 66 67 68 69 70

GFSNGP_prec_cthk_147.txt.gz
RH
64 69 70 60 58 53 60 61 63 53 62 65 64 62 54 51 47 38 27 25 26 27 27 30 33 36 39 43 51 59 78 79 74 65 75 84 95 93 99 99 97 98 91 95
80 74 71 60 61 60 52 55 54 52 55 65 61 56 52 42 36 30 28 26 28 28 29 31 35 36 39 42 48 56 66 82 75 65 71 74 77 82 85 90 95 97 95 90
82 81 80 67 56 49 59 54 55 62 63 65 57 49 45 40 38 36 32 27 28 30 31 33 36 38 39 43 47 55 59 70 80 70 68 75 66 69 73 78 83 90 90 82
75 69 72 53 51 48 50 51 52 59 66 63 50 46 43 44 40 37 29 28 29 31 31 32 36 39 41 43 47 53 58 62 74 84 77 71 73 67 64 63 69 77 79 81
82 72 62 60 55 56 58 59 53 58 55 46 46 47 47 45 43 35 31 30 29 32 33 33 36 40 42 43 47 50 57 58 66 82 83 76 73 77 85 77 72 72 68 68
75 71 73 69 57 64 62 77 64 58 56 55 51 54 53 45 38 33 32 31 30 30 33 34 38 41 43 44 48 50 56 60 63 71 83 81 86 82 85 89 87 80 76 70
77 84 78 68 62 67 74 76 73 67 62 60 57 51 46 39 36 34 34 33 33 32 34 36 39 42 46 48 50 56 58 61 64 67 79 81 80 87 83 82 89 79 84 79
80 90 90 70 72 73 76 76 70 62 59 56 54 44 36 35 36 35 36 35 35 37 37 38 42 45 50 54 56 61 63 65 65 66 73 79 77 76 84 79 86 80 80 85
80 84 81 78 79 80 76 75 69 64 59 46 37 38 40 41 39 39 38 39 39 42 43 45 46 50 54 60 64 68 71 70 69 66 68 74 74 72 73 79 78 83 79 80
84 86 85 86 84 82 79 70 58 51 43 38 35 37 40 41 44 45 44 45 47 49 51 52 52 57 61 68 72 78 83 77 75 71 68 69 72 74 68 66 69 75 75 78
90 94 88 86 86 82 75 62 52 47 37 34 36 40 43 47 48 50 50 51 55 59 60 60 59 65 70 78 81 87 96 89 81 77 73 72 70 72 78 74 69 68 71 75
98 86 80 82 76 65 54 44 41 34 37 43 45 46 45 48 52 54 55 61 65 69 69 71 70 71 80 87 87 94 97 97 94 88 83 80 74 70 71 75 70 65 67 70
87 84 76 66 57 51 44 34 36 41 42 43 45 46 49 54 59 62 65 71 76 79 75 75 76 76 85 93 94 97 97 97 97 96 90 85 80 76 72 70 74 72 69 66
78 71 68 61 56 46 33 36 41 41 40 45 50 51 53 57 63 69 72 80 85 85 85 83 83 85 88 94 95 96 97 97 97 97 97 94 88 84 80 77 75 73 72 71
64 56 51 48 37 32 35 39 39 41 47 52 55 56 58 61 65 68 73 76 76 77 79 87 91 94 96 97 97 97 95 95 97 97 97 97 96 93 88 82 78 74 71 71
49 35 32 29 31 36 39 42 47 52 55 60 61 62 65 67 67 67 67 69 73 72 73 76 80 82 86 92 96 97 97 96 94 95 97 98 98 97 93 91 87 81 78 74
31 31 31 35 38 41 46 49 52 54 55 51 49 49 47 43 42 44 50 57 61 65 66 66 67 70 75 82 85 87 90 94 96 97 94 92 94 97 97 97 94 90 84 81
37 38 40 41 42 45 48 50 49 47 43 41 38 35 34 33 32 33 32 30 30 32 35 37 41 45 49 52 55 62 71 79 84 88 91 95 95 93 92 94 97 97 97 88
41 42 44 46 47 47 46 43 39 36 34 33 32 31 29 29 30 29 29 27 26 25 25 25 27 30 34 37 39 42 45 49 54 62 73 82 87 91 94 93 91 92 95 97
47 47 47 46 47 43 37 34 32 31 30 29 28 28 28 29 31 30 30 28 28 29 28 28 29 30 31 33 34 35 36 39 41 42 46 53 63 75 86 90 93 94 92 92
49 47 45 44 39 33 31 30 28 27 27 27 27 28 29 29 30 30 29 28 29 29 28 28 29 30 32 33 34 35 36 36 38 38 40 42 45 52 60 74 85 88 92 94
47 44 40 35 31 29 27 26 26 26 27 28 29 29 29 29 30 30 30 27 29 29 28 28 29 31 32 34 34 35 37 38 39 40 40 41 42 45 49 54 61 73 87 91
41 39 36 30 26 24 24 25 26 25 25 25 26 27 29 29 30 30 30 30 30 31 29 28 29 30 32 33 35 37 38 39 41 42 44 44 45 46 48 51 54 59 66 76
40 39 32 25 23 23 25 25 25 25 25 25 27 29 32 31 32 31 29 31 32 32 33 33 32 33 34 34 36 38 39 41 44 46 47 47 48 49 50 53 55 56 60 65
41 36 28 23 23 25 26 26 26 27 28 30 31 32 34 35 34 36 35 34 35 35 34 35 35 34 34 35 36 37 39 41 42 45 47 49 51 54 55 57 58 59 61 63
42 35 25 23 26 28 27 27 29 32 34 36 37 39 40 39 38 39 39 38 38 38 38 38 37 37 36 35 35 36 37 37 37 39 44 49 53 57 60 62 63 64 65 66
46 33 27 29 32 31 29 32 34 36 39 42 44 44 43 43 42 42 42 42 42 41 41 40 41 40 39 38 38 37 35 34 33 34 36 39 44 49 57 63 67 68 69 70